Check out our new BloomSky Weather System.

Active alerts

Galveston, TX
  Details for Galveston, TX Rip Current Statement


Thunder radar  blitzortung!


Rain radar more information rain snow radar


Visit our other weather sites:

Template documentation
and downloads

And another site



Weather Underground History page Text

Daily Summary for February 8, 2018 Units:  Both    English   Metric
« Previous Day
Next Day »
Daily Weekly Monthly Yearly Custom
  High: Low: Average:
Temperature: TemperatureF °F /  -17.8 °C 37.0 °F /  2.8 °C 49.1 °F /  9.5 °C
Dew Point: DewpointF °F /  -17.8 °C 34.9 °F /  1.6 °C 43.3 °F /  6.3 °C
Humidity: Humidity % 62 % 81 %
Wind Speed: WindSpeedMPH mph /  0 km/h - 1.5 mph /  2.4 km/h
Wind Gust: WindSpeedGustMPH mph /  0 km/h - -
Wind:- - South
Pressure: PressureIn in /  0 hPa 30.26 in /  1024.6 hPa -
Precipitation: 0.00 in /  0 mm    
Historical Graphs
 
 
Tabular Data for February 8, 2018
Time Temperature Dew Point Pressure Wind Wind Speed Wind Gust Humidity Rainfall Rate (Hourly)
TemperatureF °F /  -17.8 °C DewpointF °F /  -17.8 °C PressureIn in /  0 hPa Calm     Humidity % HourlyPrecipIn in /  0 mm
00:01 42.3 °F /  5.7 °C 40.6 °F /  4.8 °C 30.40 in /  1029.3 hPa NNE 2.0 mph /  3.2 km/h 9.0 mph /  14.5 km/h 94 % 0.00 in /  0 mm
00:06 42.3 °F /  5.7 °C 40.6 °F /  4.8 °C 30.40 in /  1029.3 hPa NNW 1.0 mph /  1.6 km/h 12.0 mph /  19.3 km/h 94 % 0.00 in /  0 mm
00:14 42.3 °F /  5.7 °C 40.6 °F /  4.8 °C 30.40 in /  1029.3 hPa NNE 3.0 mph /  4.8 km/h 12.0 mph /  19.3 km/h 94 % 0.00 in /  0 mm
00:19 42.3 °F /  5.7 °C 40.5 °F /  4.7 °C 30.39 in /  1029 hPa Calm   12.0 mph /  19.3 km/h 93 % 0.00 in /  0 mm
00:24 42.3 °F /  5.7 °C 40.5 °F /  4.7 °C 30.39 in /  1029 hPa NW 2.0 mph /  3.2 km/h 12.0 mph /  19.3 km/h 93 % 0.00 in /  0 mm
00:29 42.3 °F /  5.7 °C 40.5 °F /  4.7 °C 30.40 in /  1029.3 hPa NW 4.0 mph /  6.4 km/h 12.0 mph /  19.3 km/h 93 % 0.00 in /  0 mm
00:34 42.3 °F /  5.7 °C 40.5 °F /  4.7 °C 30.40 in /  1029.3 hPa ESE 7.0 mph /  11.3 km/h 12.0 mph /  19.3 km/h 93 % 0.00 in /  0 mm
00:39 42.3 °F /  5.7 °C 40.5 °F /  4.7 °C 30.40 in /  1029.3 hPa North 3.0 mph /  4.8 km/h 11.0 mph /  17.7 km/h 93 % 0.00 in /  0 mm
00:44 42.3 °F /  5.7 °C 40.1 °F /  4.5 °C 30.40 in /  1029.3 hPa ENE 3.0 mph /  4.8 km/h 11.0 mph /  17.7 km/h 92 % 0.00 in /  0 mm
00:49 42.3 °F /  5.7 °C 40.1 °F /  4.5 °C 30.40 in /  1029.3 hPa North 2.0 mph /  3.2 km/h 11.0 mph /  17.7 km/h 92 % 0.00 in /  0 mm
00:54 42.3 °F /  5.7 °C 40.1 °F /  4.5 °C 30.40 in /  1029.3 hPa NNW 3.0 mph /  4.8 km/h 10.0 mph /  16.1 km/h 92 % 0.00 in /  0 mm
00:59 42.3 °F /  5.7 °C 40.1 °F /  4.5 °C 30.40 in /  1029.3 hPa North 3.0 mph /  4.8 km/h 10.0 mph /  16.1 km/h 92 % 0.00 in /  0 mm
01:04 42.3 °F /  5.7 °C 40.1 °F /  4.5 °C 30.40 in /  1029.3 hPa NNW 2.0 mph /  3.2 km/h 10.0 mph /  16.1 km/h 92 % 0.00 in /  0 mm
01:09 42.3 °F /  5.7 °C 40.1 °F /  4.5 °C 30.40 in /  1029.3 hPa North 4.0 mph /  6.4 km/h 10.0 mph /  16.1 km/h 92 % 0.00 in /  0 mm
01:14 42.3 °F /  5.7 °C 40.1 °F /  4.5 °C 30.40 in /  1029.3 hPa SW 3.0 mph /  4.8 km/h 9.0 mph /  14.5 km/h 92 % 0.00 in /  0 mm
01:19 42.1 °F /  5.6 °C 39.9 °F /  4.4 °C 30.40 in /  1029.3 hPa North 6.0 mph /  9.7 km/h 9.0 mph /  14.5 km/h 92 % 0.00 in /  0 mm
01:24 42.1 °F /  5.6 °C 39.9 °F /  4.4 °C 30.40 in /  1029.3 hPa NNW 2.0 mph /  3.2 km/h 11.0 mph /  17.7 km/h 92 % 0.00 in /  0 mm
01:29 42.1 °F /  5.6 °C 39.9 °F /  4.4 °C 30.40 in /  1029.3 hPa NNE 2.0 mph /  3.2 km/h 11.0 mph /  17.7 km/h 92 % 0.00 in /  0 mm
01:34 42.1 °F /  5.6 °C 39.9 °F /  4.4 °C 30.40 in /  1029.3 hPa NW 1.0 mph /  1.6 km/h 11.0 mph /  17.7 km/h 92 % 0.00 in /  0 mm
01:39 42.1 °F /  5.6 °C 39.9 °F /  4.4 °C 30.40 in /  1029.3 hPa Calm   9.0 mph /  14.5 km/h 92 % 0.00 in /  0 mm
01:44 42.1 °F /  5.6 °C 39.9 °F /  4.4 °C 30.40 in /  1029.3 hPa Calm   9.0 mph /  14.5 km/h 92 % 0.00 in /  0 mm
01:49 42.1 °F /  5.6 °C 39.9 °F /  4.4 °C 30.40 in /  1029.3 hPa NW 3.0 mph /  4.8 km/h 6.0 mph /  9.7 km/h 92 % 0.00 in /  0 mm
01:55 42.1 °F /  5.6 °C 39.9 °F /  4.4 °C 30.40 in /  1029.3 hPa North 6.0 mph /  9.7 km/h 6.0 mph /  9.7 km/h 92 % 0.00 in /  0 mm
01:59 41.9 °F /  5.5 °C 39.7 °F /  4.3 °C 30.40 in /  1029.3 hPa NNW 8.0 mph /  12.9 km/h 8.0 mph /  12.9 km/h 92 % 0.00 in /  0 mm
02:05 41.9 °F /  5.5 °C 39.7 °F /  4.3 °C 30.40 in /  1029.3 hPa NNW 4.0 mph /  6.4 km/h 8.0 mph /  12.9 km/h 92 % 0.00 in /  0 mm
02:10 41.9 °F /  5.5 °C 39.7 °F /  4.3 °C 30.40 in /  1029.3 hPa NNW 3.0 mph /  4.8 km/h 8.0 mph /  12.9 km/h 92 % 0.00 in /  0 mm
02:15 41.7 °F /  5.4 °C 39.6 °F /  4.2 °C 30.40 in /  1029.3 hPa NNW 4.0 mph /  6.4 km/h 10.0 mph /  16.1 km/h 92 % 0.00 in /  0 mm
02:20 41.7 °F /  5.4 °C 39.6 °F /  4.2 °C 30.40 in /  1029.3 hPa NW 1.0 mph /  1.6 km/h 10.0 mph /  16.1 km/h 92 % 0.00 in /  0 mm
02:25 41.7 °F /  5.4 °C 39.6 °F /  4.2 °C 30.40 in /  1029.3 hPa NNW 2.0 mph /  3.2 km/h 10.0 mph /  16.1 km/h 92 % 0.00 in /  0 mm
02:30 41.9 °F /  5.5 °C 39.7 °F /  4.3 °C 30.40 in /  1029.3 hPa North 3.0 mph /  4.8 km/h 9.0 mph /  14.5 km/h 92 % 0.00 in /  0 mm
02:35 41.9 °F /  5.5 °C 39.7 °F /  4.3 °C 30.40 in /  1029.3 hPa NW 1.0 mph /  1.6 km/h 7.0 mph /  11.3 km/h 92 % 0.00 in /  0 mm
02:40 41.9 °F /  5.5 °C 39.7 °F /  4.3 °C 30.40 in /  1029.3 hPa NNW 1.0 mph /  1.6 km/h 7.0 mph /  11.3 km/h 92 % 0.00 in /  0 mm
02:45 41.9 °F /  5.5 °C 39.7 °F /  4.3 °C 30.40 in /  1029.3 hPa ENE 1.0 mph /  1.6 km/h 5.0 mph /  8 km/h 92 % 0.00 in /  0 mm
02:50 41.9 °F /  5.5 °C 39.7 °F /  4.3 °C 30.40 in /  1029.3 hPa North 1.0 mph /  1.6 km/h 5.0 mph /  8 km/h 92 % 0.00 in /  0 mm
02:55 41.7 °F /  5.4 °C 39.6 °F /  4.2 °C 30.40 in /  1029.3 hPa NNW 3.0 mph /  4.8 km/h 8.0 mph /  12.9 km/h 92 % 0.00 in /  0 mm
03:00 41.7 °F /  5.4 °C 39.6 °F /  4.2 °C 30.40 in /  1029.3 hPa ENE 4.0 mph /  6.4 km/h 8.0 mph /  12.9 km/h 92 % 0.00 in /  0 mm
03:02 41.7 °F /  5.4 °C 39.6 °F /  4.2 °C 30.40 in /  1029.3 hPa NW 1.0 mph /  1.6 km/h 8.0 mph /  12.9 km/h 92 % 0.00 in /  0 mm
03:07 41.7 °F /  5.4 °C 39.6 °F /  4.2 °C 30.40 in /  1029.3 hPa NNE 4.0 mph /  6.4 km/h 8.0 mph /  12.9 km/h 92 % 0.00 in /  0 mm
03:12 41.5 °F /  5.3 °C 39.4 °F /  4.1 °C 30.40 in /  1029.3 hPa NW 1.0 mph /  1.6 km/h 7.0 mph /  11.3 km/h 92 % 0.00 in /  0 mm
03:17 41.5 °F /  5.3 °C 39.4 °F /  4.1 °C 30.40 in /  1029.3 hPa NW 2.0 mph /  3.2 km/h 7.0 mph /  11.3 km/h 92 % 0.00 in /  0 mm
03:22 41.4 °F /  5.2 °C 39.2 °F /  4 °C 30.40 in /  1029.3 hPa North 1.0 mph /  1.6 km/h 7.0 mph /  11.3 km/h 92 % 0.00 in /  0 mm
03:27 41.2 °F /  5.1 °C 39.0 °F /  3.9 °C 30.39 in /  1029 hPa NW 1.0 mph /  1.6 km/h 7.0 mph /  11.3 km/h 92 % 0.00 in /  0 mm
03:32 41.2 °F /  5.1 °C 39.0 °F /  3.9 °C 30.39 in /  1029 hPa NNE 2.0 mph /  3.2 km/h 6.0 mph /  9.7 km/h 92 % 0.00 in /  0 mm
03:37 40.8 °F /  4.9 °C 38.7 °F /  3.7 °C 30.39 in /  1029 hPa Calm   6.0 mph /  9.7 km/h 92 % 0.00 in /  0 mm
03:42 40.8 °F /  4.9 °C 38.7 °F /  3.7 °C 30.39 in /  1029 hPa NNW 3.0 mph /  4.8 km/h 6.0 mph /  9.7 km/h 92 % 0.00 in /  0 mm
03:48 40.6 °F /  4.8 °C 38.5 °F /  3.6 °C 30.39 in /  1029 hPa Calm   10.0 mph /  16.1 km/h 92 % 0.00 in /  0 mm
03:53 40.5 °F /  4.7 °C 38.3 °F /  3.5 °C 30.39 in /  1029 hPa Calm   10.0 mph /  16.1 km/h 92 % 0.00 in /  0 mm
03:58 40.5 °F /  4.7 °C 38.3 °F /  3.5 °C 30.39 in /  1029 hPa North 2.0 mph /  3.2 km/h 10.0 mph /  16.1 km/h 92 % 0.00 in /  0 mm
04:03 40.3 °F /  4.6 °C 37.9 °F /  3.3 °C 30.40 in /  1029.3 hPa Calm   8.0 mph /  12.9 km/h 91 % 0.00 in /  0 mm
04:08 39.9 °F /  4.4 °C 37.6 °F /  3.1 °C 30.39 in /  1029 hPa ENE 1.0 mph /  1.6 km/h 8.0 mph /  12.9 km/h 91 % 0.00 in /  0 mm
04:12 39.9 °F /  4.4 °C 37.6 °F /  3.1 °C 30.39 in /  1029 hPa North 1.0 mph /  1.6 km/h 8.0 mph /  12.9 km/h 91 % 0.00 in /  0 mm
04:17 39.9 °F /  4.4 °C 37.2 °F /  2.9 °C 30.39 in /  1029 hPa NNW 1.0 mph /  1.6 km/h 7.0 mph /  11.3 km/h 90 % 0.00 in /  0 mm
04:27 39.7 °F /  4.3 °C 37.0 °F /  2.8 °C 30.39 in /  1029 hPa Calm   5.0 mph /  8 km/h 90 % 0.00 in /  0 mm
04:32 39.7 °F /  4.3 °C 37.0 °F /  2.8 °C 30.39 in /  1029 hPa Calm   7.0 mph /  11.3 km/h 90 % 0.00 in /  0 mm
04:37 39.6 °F /  4.2 °C 36.9 °F /  2.7 °C 30.39 in /  1029 hPa North 4.0 mph /  6.4 km/h 7.0 mph /  11.3 km/h 90 % 0.00 in /  0 mm
04:42 39.6 °F /  4.2 °C 36.9 °F /  2.7 °C 30.39 in /  1029 hPa NNW 1.0 mph /  1.6 km/h 7.0 mph /  11.3 km/h 90 % 0.00 in /  0 mm
04:47 39.4 °F /  4.1 °C 36.7 °F /  2.6 °C 30.39 in /  1029 hPa North 1.0 mph /  1.6 km/h 7.0 mph /  11.3 km/h 90 % 0.00 in /  0 mm
04:52 39.4 °F /  4.1 °C 36.7 °F /  2.6 °C 30.39 in /  1029 hPa ESE 2.0 mph /  3.2 km/h 7.0 mph /  11.3 km/h 90 % 0.00 in /  0 mm
05:02 39.4 °F /  4.1 °C 36.7 °F /  2.6 °C 30.39 in /  1029 hPa North 1.0 mph /  1.6 km/h 6.0 mph /  9.7 km/h 90 % 0.00 in /  0 mm
05:07 39.2 °F /  4 °C 36.5 °F /  2.5 °C 30.39 in /  1029 hPa North 3.0 mph /  4.8 km/h 6.0 mph /  9.7 km/h 90 % 0.00 in /  0 mm
05:12 39.0 °F /  3.9 °C 36.3 °F /  2.4 °C 30.39 in /  1029 hPa NNW 3.0 mph /  4.8 km/h 8.0 mph /  12.9 km/h 90 % 0.00 in /  0 mm
05:17 39.0 °F /  3.9 °C 36.3 °F /  2.4 °C 30.39 in /  1029 hPa NNW 1.0 mph /  1.6 km/h 8.0 mph /  12.9 km/h 90 % 0.00 in /  0 mm
05:22 39.0 °F /  3.9 °C 36.3 °F /  2.4 °C 30.39 in /  1029 hPa North 1.0 mph /  1.6 km/h 8.0 mph /  12.9 km/h 90 % 0.00 in /  0 mm
05:27 38.8 °F /  3.8 °C 36.1 °F /  2.3 °C 30.39 in /  1029 hPa Calm   8.0 mph /  12.9 km/h 90 % 0.00 in /  0 mm
05:32 39.0 °F /  3.9 °C 36.3 °F /  2.4 °C 30.39 in /  1029 hPa NNW 2.0 mph /  3.2 km/h 9.0 mph /  14.5 km/h 90 % 0.00 in /  0 mm
05:37 38.8 °F /  3.8 °C 36.1 °F /  2.3 °C 30.40 in /  1029.3 hPa NW 2.0 mph /  3.2 km/h 9.0 mph /  14.5 km/h 90 % 0.00 in /  0 mm
05:42 38.8 °F /  3.8 °C 36.1 °F /  2.3 °C 30.40 in /  1029.3 hPa NNW 1.0 mph /  1.6 km/h 9.0 mph /  14.5 km/h 90 % 0.00 in /  0 mm
05:47 38.8 °F /  3.8 °C 36.1 °F /  2.3 °C 30.40 in /  1029.3 hPa Calm   7.0 mph /  11.3 km/h 90 % 0.00 in /  0 mm
05:52 38.8 °F /  3.8 °C 36.1 °F /  2.3 °C 30.40 in /  1029.3 hPa NNW 2.0 mph /  3.2 km/h 5.0 mph /  8 km/h 90 % 0.00 in /  0 mm
05:57 38.7 °F /  3.7 °C 36.0 °F /  2.2 °C 30.40 in /  1029.3 hPa Calm   6.0 mph /  9.7 km/h 90 % 0.00 in /  0 mm
06:02 38.7 °F /  3.7 °C 36.0 °F /  2.2 °C 30.40 in /  1029.3 hPa North 2.0 mph /  3.2 km/h 6.0 mph /  9.7 km/h 90 % 0.00 in /  0 mm
06:07 38.5 °F /  3.6 °C 36.1 °F /  2.3 °C 30.40 in /  1029.3 hPa NNE 6.0 mph /  9.7 km/h 7.0 mph /  11.3 km/h 91 % 0.00 in /  0 mm
06:12 38.5 °F /  3.6 °C 36.1 °F /  2.3 °C 30.40 in /  1029.3 hPa NNW 4.0 mph /  6.4 km/h 7.0 mph /  11.3 km/h 91 % 0.00 in /  0 mm
06:17 38.3 °F /  3.5 °C 36.0 °F /  2.2 °C 30.40 in /  1029.3 hPa NNW 1.0 mph /  1.6 km/h 7.0 mph /  11.3 km/h 91 % 0.00 in /  0 mm
06:22 38.1 °F /  3.4 °C 35.8 °F /  2.1 °C 30.40 in /  1029.3 hPa NNW 1.0 mph /  1.6 km/h 7.0 mph /  11.3 km/h 91 % 0.00 in /  0 mm
06:27 38.1 °F /  3.4 °C 35.8 °F /  2.1 °C 30.40 in /  1029.3 hPa NNW 1.0 mph /  1.6 km/h 7.0 mph /  11.3 km/h 91 % 0.00 in /  0 mm
06:32 37.9 °F /  3.3 °C 35.6 °F /  2 °C 30.40 in /  1029.3 hPa NW 1.0 mph /  1.6 km/h 8.0 mph /  12.9 km/h 91 % 0.00 in /  0 mm
06:37 37.8 °F /  3.2 °C 35.4 °F /  1.9 °C 30.41 in /  1029.7 hPa NNE 3.0 mph /  4.8 km/h 8.0 mph /  12.9 km/h 91 % 0.00 in /  0 mm
06:42 37.8 °F /  3.2 °C 35.4 °F /  1.9 °C 30.41 in /  1029.7 hPa Calm   8.0 mph /  12.9 km/h 91 % 0.00 in /  0 mm
06:47 37.6 °F /  3.1 °C 35.2 °F /  1.8 °C 30.42 in /  1030 hPa NNW 2.0 mph /  3.2 km/h 7.0 mph /  11.3 km/h 91 % 0.00 in /  0 mm
06:52 37.6 °F /  3.1 °C 35.4 °F /  1.9 °C 30.41 in /  1029.7 hPa North 6.0 mph /  9.7 km/h 6.0 mph /  9.7 km/h 92 % 0.00 in /  0 mm
06:57 37.6 °F /  3.1 °C 35.4 °F /  1.9 °C 30.42 in /  1030 hPa NNE 5.0 mph /  8 km/h 6.0 mph /  9.7 km/h 92 % 0.00 in /  0 mm
07:02 37.4 °F /  3 °C 35.2 °F /  1.8 °C 30.42 in /  1030 hPa NW 1.0 mph /  1.6 km/h 6.0 mph /  9.7 km/h 92 % 0.00 in /  0 mm
07:07 37.2 °F /  2.9 °C 35.1 °F /  1.7 °C 30.42 in /  1030 hPa Calm   6.0 mph /  9.7 km/h 92 % 0.00 in /  0 mm
07:12 37.2 °F /  2.9 °C 35.1 °F /  1.7 °C 30.42 in /  1030 hPa North 2.0 mph /  3.2 km/h 6.0 mph /  9.7 km/h 92 % 0.00 in /  0 mm
07:17 37.2 °F /  2.9 °C 35.1 °F /  1.7 °C 30.42 in /  1030 hPa Calm   7.0 mph /  11.3 km/h 92 % 0.00 in /  0 mm
07:22 37.2 °F /  2.9 °C 35.1 °F /  1.7 °C 30.42 in /  1030 hPa North 2.0 mph /  3.2 km/h 7.0 mph /  11.3 km/h 92 % 0.00 in /  0 mm
07:27 37.0 °F /  2.8 °C 34.9 °F /  1.6 °C 30.42 in /  1030 hPa North 2.0 mph /  3.2 km/h 7.0 mph /  11.3 km/h 92 % 0.00 in /  0 mm
07:32 37.0 °F /  2.8 °C 34.9 °F /  1.6 °C 30.43 in /  1030.4 hPa North 1.0 mph /  1.6 km/h 5.0 mph /  8 km/h 92 % 0.00 in /  0 mm
07:37 37.0 °F /  2.8 °C 34.9 °F /  1.6 °C 30.43 in /  1030.4 hPa Calm   6.0 mph /  9.7 km/h 92 % 0.00 in /  0 mm
07:42 37.0 °F /  2.8 °C 34.9 °F /  1.6 °C 30.43 in /  1030.4 hPa North 1.0 mph /  1.6 km/h 6.0 mph /  9.7 km/h 92 % 0.00 in /  0 mm
07:47 37.2 °F /  2.9 °C 35.1 °F /  1.7 °C 30.43 in /  1030.4 hPa NW 1.0 mph /  1.6 km/h 6.0 mph /  9.7 km/h 92 % 0.00 in /  0 mm
07:52 37.2 °F /  2.9 °C 35.1 °F /  1.7 °C 30.43 in /  1030.4 hPa Calm   4.0 mph /  6.4 km/h 92 % 0.00 in /  0 mm
07:57 37.6 °F /  3.1 °C 35.4 °F /  1.9 °C 30.44 in /  1030.7 hPa Calm   4.0 mph /  6.4 km/h 92 % 0.00 in /  0 mm
08:02 37.8 °F /  3.2 °C 36.0 °F /  2.2 °C 30.44 in /  1030.7 hPa Calm   4.0 mph /  6.4 km/h 93 % 0.00 in /  0 mm
08:07 38.1 °F /  3.4 °C 36.0 °F /  2.2 °C 30.44 in /  1030.7 hPa Calm   5.0 mph /  8 km/h 92 % 0.00 in /  0 mm
08:12 38.3 °F /  3.5 °C 36.1 °F /  2.3 °C 30.44 in /  1030.7 hPa NNW 2.0 mph /  3.2 km/h 7.0 mph /  11.3 km/h 92 % 0.00 in /  0 mm
08:17 38.5 °F /  3.6 °C 36.1 °F /  2.3 °C 30.44 in /  1030.7 hPa Calm   8.0 mph /  12.9 km/h 91 % 0.00 in /  0 mm
08:23 38.7 °F /  3.7 °C 36.3 °F /  2.4 °C 30.44 in /  1030.7 hPa North 5.0 mph /  8 km/h 8.0 mph /  12.9 km/h 91 % 0.00 in /  0 mm
08:28 39.0 °F /  3.9 °C 36.7 °F /  2.6 °C 30.43 in /  1030.4 hPa North 2.0 mph /  3.2 km/h 8.0 mph /  12.9 km/h 91 % 0.00 in /  0 mm
08:33 39.6 °F /  4.2 °C 37.2 °F /  2.9 °C 30.44 in /  1030.7 hPa NNE 1.0 mph /  1.6 km/h 6.0 mph /  9.7 km/h 91 % 0.00 in /  0 mm
08:38 39.9 °F /  4.4 °C 36.9 °F /  2.7 °C 30.43 in /  1030.4 hPa North 3.0 mph /  4.8 km/h 6.0 mph /  9.7 km/h 89 % 0.00 in /  0 mm
08:43 40.1 °F /  4.5 °C 37.0 °F /  2.8 °C 30.43 in /  1030.4 hPa Calm   5.0 mph /  8 km/h 89 % 0.00 in /  0 mm
08:48 40.6 °F /  4.8 °C 37.4 °F /  3 °C 30.44 in /  1030.7 hPa Calm   5.0 mph /  8 km/h 88 % 0.00 in /  0 mm
08:53 40.8 °F /  4.9 °C 37.2 °F /  2.9 °C 30.44 in /  1030.7 hPa Calm   6.0 mph /  9.7 km/h 87 % 0.00 in /  0 mm
08:58 41.0 °F /  5 °C 37.2 °F /  2.9 °C 30.44 in /  1030.7 hPa NNW 4.0 mph /  6.4 km/h 6.0 mph /  9.7 km/h 86 % 0.00 in /  0 mm
09:03 41.2 °F /  5.1 °C 37.4 °F /  3 °C 30.43 in /  1030.4 hPa North 2.0 mph /  3.2 km/h 9.0 mph /  14.5 km/h 86 % 0.00 in /  0 mm
09:08 41.5 °F /  5.3 °C 37.6 °F /  3.1 °C 30.44 in /  1030.7 hPa Calm   9.0 mph /  14.5 km/h 86 % 0.00 in /  0 mm
09:13 41.5 °F /  5.3 °C 37.0 °F /  2.8 °C 30.43 in /  1030.4 hPa ENE 1.0 mph /  1.6 km/h 9.0 mph /  14.5 km/h 84 % 0.00 in /  0 mm
09:18 42.1 °F /  5.6 °C 37.9 °F /  3.3 °C 30.44 in /  1030.7 hPa WSW 1.0 mph /  1.6 km/h 6.0 mph /  9.7 km/h 85 % 0.00 in /  0 mm
09:23 42.4 °F /  5.8 °C 37.9 °F /  3.3 °C 30.44 in /  1030.7 hPa NW 4.0 mph /  6.4 km/h 6.0 mph /  9.7 km/h 84 % 0.00 in /  0 mm
09:28 42.6 °F /  5.9 °C 38.1 °F /  3.4 °C 30.44 in /  1030.7 hPa North 2.0 mph /  3.2 km/h 6.0 mph /  9.7 km/h 84 % 0.00 in /  0 mm
09:33 42.6 °F /  5.9 °C 37.8 °F /  3.2 °C 30.44 in /  1030.7 hPa ENE 2.0 mph /  3.2 km/h 6.0 mph /  9.7 km/h 83 % 0.00 in /  0 mm
09:38 42.6 °F /  5.9 °C 37.8 °F /  3.2 °C 30.43 in /  1030.4 hPa NNW 1.0 mph /  1.6 km/h 6.0 mph /  9.7 km/h 83 % 0.00 in /  0 mm
09:43 43.3 °F /  6.3 °C 38.8 °F /  3.8 °C 30.43 in /  1030.4 hPa NNW 1.0 mph /  1.6 km/h 5.0 mph /  8 km/h 84 % 0.00 in /  0 mm
09:48 43.3 °F /  6.3 °C 38.3 °F /  3.5 °C 30.43 in /  1030.4 hPa North 2.0 mph /  3.2 km/h 6.0 mph /  9.7 km/h 82 % 0.00 in /  0 mm
09:53 43.5 °F /  6.4 °C 38.5 °F /  3.6 °C 30.43 in /  1030.4 hPa Calm   6.0 mph /  9.7 km/h 82 % 0.00 in /  0 mm
09:58 44.1 °F /  6.7 °C 38.8 °F /  3.8 °C 30.43 in /  1030.4 hPa North 3.0 mph /  4.8 km/h 6.0 mph /  9.7 km/h 82 % 0.00 in /  0 mm
10:03 44.2 °F /  6.8 °C 38.5 °F /  3.6 °C 30.43 in /  1030.4 hPa Calm   6.0 mph /  9.7 km/h 80 % 0.00 in /  0 mm
10:08 44.8 °F /  7.1 °C 39.6 °F /  4.2 °C 30.43 in /  1030.4 hPa NNW 1.0 mph /  1.6 km/h 5.0 mph /  8 km/h 82 % 0.00 in /  0 mm
10:13 45.0 °F /  7.2 °C 38.8 °F /  3.8 °C 30.44 in /  1030.7 hPa ESE 1.0 mph /  1.6 km/h 5.0 mph /  8 km/h 79 % 0.00 in /  0 mm
10:18 45.3 °F /  7.4 °C 39.9 °F /  4.4 °C 30.43 in /  1030.4 hPa NNE 1.0 mph /  1.6 km/h 5.0 mph /  8 km/h 81 % 0.00 in /  0 mm
10:23 45.7 °F /  7.6 °C 39.6 °F /  4.2 °C 30.43 in /  1030.4 hPa ENE 3.0 mph /  4.8 km/h 6.0 mph /  9.7 km/h 79 % 0.00 in /  0 mm
10:28 45.9 °F /  7.7 °C 39.7 °F /  4.3 °C 30.43 in /  1030.4 hPa Calm   6.0 mph /  9.7 km/h 79 % 0.00 in /  0 mm
10:33 46.0 °F /  7.8 °C 39.6 °F /  4.2 °C 30.43 in /  1030.4 hPa SE 2.0 mph /  3.2 km/h 6.0 mph /  9.7 km/h 78 % 0.00 in /  0 mm
10:38 46.4 °F /  8 °C 40.6 °F /  4.8 °C 30.42 in /  1030 hPa Calm   7.0 mph /  11.3 km/h 80 % 0.00 in /  0 mm
10:43 46.8 °F /  8.2 °C 39.9 °F /  4.4 °C 30.42 in /  1030 hPa ESE 4.0 mph /  6.4 km/h 7.0 mph /  11.3 km/h 77 % 0.00 in /  0 mm
10:48 46.9 °F /  8.3 °C 40.5 °F /  4.7 °C 30.42 in /  1030 hPa Calm   7.0 mph /  11.3 km/h 78 % 0.00 in /  0 mm
10:53 47.7 °F /  8.7 °C 41.2 °F /  5.1 °C 30.42 in /  1030 hPa NNE 1.0 mph /  1.6 km/h 7.0 mph /  11.3 km/h 78 % 0.00 in /  0 mm
10:58 48.0 °F /  8.9 °C 41.2 °F /  5.1 °C 30.42 in /  1030 hPa Calm   6.0 mph /  9.7 km/h 77 % 0.00 in /  0 mm
11:03 48.7 °F /  9.3 °C 41.5 °F /  5.3 °C 30.42 in /  1030 hPa East 3.0 mph /  4.8 km/h 4.0 mph /  6.4 km/h 76 % 0.00 in /  0 mm
11:08 48.9 °F /  9.4 °C 42.1 °F /  5.6 °C 30.41 in /  1029.7 hPa ESE 2.0 mph /  3.2 km/h 4.0 mph /  6.4 km/h 77 % 0.00 in /  0 mm
11:13 49.3 °F /  9.6 °C 41.7 °F /  5.4 °C 30.41 in /  1029.7 hPa Calm   4.0 mph /  6.4 km/h 75 % 0.00 in /  0 mm
11:18 49.6 °F /  9.8 °C 42.1 °F /  5.6 °C 30.41 in /  1029.7 hPa NNW 1.0 mph /  1.6 km/h 4.0 mph /  6.4 km/h 75 % 0.00 in /  0 mm
11:23 49.5 °F /  9.7 °C 41.5 °F /  5.3 °C 30.41 in /  1029.7 hPa NNW 2.0 mph /  3.2 km/h 6.0 mph /  9.7 km/h 74 % 0.00 in /  0 mm
11:28 49.8 °F /  9.9 °C 42.3 °F /  5.7 °C 30.41 in /  1029.7 hPa ENE 3.0 mph /  4.8 km/h 6.0 mph /  9.7 km/h 75 % 0.00 in /  0 mm
11:33 50.2 °F /  10.1 °C 42.6 °F /  5.9 °C 30.41 in /  1029.7 hPa Calm   6.0 mph /  9.7 km/h 75 % 0.00 in /  0 mm
11:38 50.5 °F /  10.3 °C 42.6 °F /  5.9 °C 30.40 in /  1029.3 hPa Calm   6.0 mph /  9.7 km/h 74 % 0.00 in /  0 mm
11:43 50.5 °F /  10.3 °C 42.6 °F /  5.9 °C 30.40 in /  1029.3 hPa Calm   6.0 mph /  9.7 km/h 74 % 0.00 in /  0 mm
11:48 51.4 °F /  10.8 °C 43.5 °F /  6.4 °C 30.40 in /  1029.3 hPa NNE 1.0 mph /  1.6 km/h 6.0 mph /  9.7 km/h 74 % 0.00 in /  0 mm
11:53 51.8 °F /  11 °C 43.0 °F /  6.1 °C 30.40 in /  1029.3 hPa East 2.0 mph /  3.2 km/h 5.0 mph /  8 km/h 72 % 0.00 in /  0 mm
11:58 52.0 °F /  11.1 °C 43.5 °F /  6.4 °C 30.39 in /  1029 hPa North 3.0 mph /  4.8 km/h 4.0 mph /  6.4 km/h 73 % 0.00 in /  0 mm
12:03 52.0 °F /  11.1 °C 43.2 °F /  6.2 °C 30.39 in /  1029 hPa ENE 1.0 mph /  1.6 km/h 6.0 mph /  9.7 km/h 72 % 0.00 in /  0 mm
12:08 52.0 °F /  11.1 °C 42.8 °F /  6 °C 30.39 in /  1029 hPa ESE 2.0 mph /  3.2 km/h 6.0 mph /  9.7 km/h 71 % 0.00 in /  0 mm
12:13 52.3 °F /  11.3 °C 43.5 °F /  6.4 °C 30.39 in /  1029 hPa ENE 1.0 mph /  1.6 km/h 6.0 mph /  9.7 km/h 72 % 0.00 in /  0 mm
12:18 52.9 °F /  11.6 °C 44.1 °F /  6.7 °C 30.39 in /  1029 hPa ESE 1.0 mph /  1.6 km/h 6.0 mph /  9.7 km/h 72 % 0.00 in /  0 mm
12:23 53.4 °F /  11.9 °C 44.6 °F /  7 °C 30.38 in /  1028.7 hPa SW 1.0 mph /  1.6 km/h 6.0 mph /  9.7 km/h 72 % 0.00 in /  0 mm
12:28 54.1 °F /  12.3 °C 44.6 °F /  7 °C 30.38 in /  1028.7 hPa NE 2.0 mph /  3.2 km/h 6.0 mph /  9.7 km/h 70 % 0.00 in /  0 mm
12:33 54.7 °F /  12.6 °C 44.8 °F /  7.1 °C 30.38 in /  1028.7 hPa Calm   5.0 mph /  8 km/h 69 % 0.00 in /  0 mm
12:38 55.0 °F /  12.8 °C 45.1 °F /  7.3 °C 30.38 in /  1028.7 hPa ENE 1.0 mph /  1.6 km/h 6.0 mph /  9.7 km/h 69 % 0.00 in /  0 mm
12:39 55.0 °F /  12.8 °C 44.6 °F /  7 °C 30.38 in /  1028.7 hPa SE 2.0 mph /  3.2 km/h 6.0 mph /  9.7 km/h 68 % 0.00 in /  0 mm
12:44 55.0 °F /  12.8 °C 44.6 °F /  7 °C 30.38 in /  1028.7 hPa South 1.0 mph /  1.6 km/h 6.0 mph /  9.7 km/h 68 % 0.00 in /  0 mm
12:49 55.8 °F /  13.2 °C 45.3 °F /  7.4 °C 30.37 in /  1028.3 hPa Calm   6.0 mph /  9.7 km/h 68 % 0.00 in /  0 mm
12:54 56.3 °F /  13.5 °C 45.9 °F /  7.7 °C 30.37 in /  1028.3 hPa East 4.0 mph /  6.4 km/h 6.0 mph /  9.7 km/h 68 % 0.00 in /  0 mm
12:59 56.1 °F /  13.4 °C 45.3 °F /  7.4 °C 30.37 in /  1028.3 hPa Calm   6.0 mph /  9.7 km/h 67 % 0.00 in /  0 mm
13:04 56.7 °F /  13.7 °C 46.2 °F /  7.9 °C 30.36 in /  1028 hPa SSE 5.0 mph /  8 km/h 5.0 mph /  8 km/h 68 % 0.00 in /  0 mm
13:09 57.0 °F /  13.9 °C 46.2 °F /  7.9 °C 30.36 in /  1028 hPa SW 1.0 mph /  1.6 km/h 6.0 mph /  9.7 km/h 67 % 0.00 in /  0 mm
13:12 57.7 °F /  14.3 °C 46.9 °F /  8.3 °C 30.35 in /  1027.7 hPa East 1.0 mph /  1.6 km/h 6.0 mph /  9.7 km/h 67 % 0.00 in /  0 mm
13:22 57.7 °F /  14.3 °C 45.7 °F /  7.6 °C 30.35 in /  1027.7 hPa SSW 1.0 mph /  1.6 km/h 5.0 mph /  8 km/h 64 % 0.00 in /  0 mm
13:27 57.9 °F /  14.4 °C 46.2 °F /  7.9 °C 30.34 in /  1027.3 hPa ESE 3.0 mph /  4.8 km/h 5.0 mph /  8 km/h 65 % 0.00 in /  0 mm
13:32 58.5 °F /  14.7 °C 47.1 °F /  8.4 °C 30.34 in /  1027.3 hPa Calm   4.0 mph /  6.4 km/h 66 % 0.00 in /  0 mm
13:37 58.6 °F /  14.8 °C 46.0 °F /  7.8 °C 30.34 in /  1027.3 hPa Calm   5.0 mph /  8 km/h 63 % 0.00 in /  0 mm
13:38 58.6 °F /  14.8 °C 46.9 °F /  8.3 °C 30.33 in /  1027 hPa Calm   5.0 mph /  8 km/h 65 % 0.00 in /  0 mm
13:47 59.0 °F /  15 °C 47.3 °F /  8.5 °C 30.33 in /  1027 hPa SSW 2.0 mph /  3.2 km/h 5.0 mph /  8 km/h 65 % 0.00 in /  0 mm
13:54 59.5 °F /  15.3 °C 46.9 °F /  8.3 °C 30.33 in /  1027 hPa WNW 1.0 mph /  1.6 km/h 5.0 mph /  8 km/h 63 % 0.00 in /  0 mm
13:59 59.4 °F /  15.2 °C 46.4 °F /  8 °C 30.33 in /  1027 hPa Calm   5.0 mph /  8 km/h 62 % 0.00 in /  0 mm
14:07 59.9 °F /  15.5 °C 47.7 °F /  8.7 °C 30.32 in /  1026.6 hPa SE 2.0 mph /  3.2 km/h 4.0 mph /  6.4 km/h 64 % 0.00 in /  0 mm
14:14 60.3 °F /  15.7 °C 47.1 °F /  8.4 °C 30.32 in /  1026.6 hPa West 1.0 mph /  1.6 km/h 5.0 mph /  8 km/h 62 % 0.00 in /  0 mm
14:19 60.8 °F /  16 °C 48.6 °F /  9.2 °C 30.32 in /  1026.6 hPa NW 2.0 mph /  3.2 km/h 5.0 mph /  8 km/h 64 % 0.00 in /  0 mm
14:24 61.0 °F /  16.1 °C 47.8 °F /  8.8 °C 30.32 in /  1026.6 hPa Calm   5.0 mph /  8 km/h 62 % 0.00 in /  0 mm
14:29 61.2 °F /  16.2 °C 48.0 °F /  8.9 °C 30.32 in /  1026.6 hPa NE 1.0 mph /  1.6 km/h 5.0 mph /  8 km/h 62 % 0.00 in /  0 mm
14:34 61.3 °F /  16.3 °C 48.6 °F /  9.2 °C 30.32 in /  1026.6 hPa SE 1.0 mph /  1.6 km/h 4.0 mph /  6.4 km/h 63 % 0.00 in /  0 mm
14:39 61.5 °F /  16.4 °C 48.7 °F /  9.3 °C 30.32 in /  1026.6 hPa ESE 6.0 mph /  9.7 km/h 6.0 mph /  9.7 km/h 63 % 0.00 in /  0 mm
14:44 61.3 °F /  16.3 °C 48.6 °F /  9.2 °C 30.31 in /  1026.3 hPa Calm   8.0 mph /  12.9 km/h 63 % 0.00 in /  0 mm
14:49 61.7 °F /  16.5 °C 48.9 °F /  9.4 °C 30.31 in /  1026.3 hPa NE 2.0 mph /  3.2 km/h 8.0 mph /  12.9 km/h 63 % 0.00 in /  0 mm
14:54 61.2 °F /  16.2 °C 48.0 °F /  8.9 °C 30.31 in /  1026.3 hPa East 1.0 mph /  1.6 km/h 8.0 mph /  12.9 km/h 62 % 0.00 in /  0 mm
14:59 61.5 °F /  16.4 °C 50.0 °F /  10 °C 30.30 in /  1026 hPa ENE 3.0 mph /  4.8 km/h 6.0 mph /  9.7 km/h 66 % 0.00 in /  0 mm
15:05 61.9 °F /  16.6 °C 49.6 °F /  9.8 °C 30.30 in /  1026 hPa SE 5.0 mph /  8 km/h 6.0 mph /  9.7 km/h 64 % 0.00 in /  0 mm
15:10 61.5 °F /  16.4 °C 48.4 °F /  9.1 °C 30.30 in /  1026 hPa South 5.0 mph /  8 km/h 6.0 mph /  9.7 km/h 62 % 0.00 in /  0 mm
15:15 61.0 °F /  16.1 °C 48.7 °F /  9.3 °C 30.30 in /  1026 hPa SE 5.0 mph /  8 km/h 8.0 mph /  12.9 km/h 64 % 0.00 in /  0 mm
15:20 60.4 °F /  15.8 °C 48.6 °F /  9.2 °C 30.30 in /  1026 hPa ESE 1.0 mph /  1.6 km/h 8.0 mph /  12.9 km/h 65 % 0.00 in /  0 mm
15:25 60.1 °F /  15.6 °C 48.7 °F /  9.3 °C 30.30 in /  1026 hPa SSE 1.0 mph /  1.6 km/h 7.0 mph /  11.3 km/h 66 % 0.00 in /  0 mm
15:30 59.7 °F /  15.4 °C 48.4 °F /  9.1 °C 30.30 in /  1026 hPa SE 2.0 mph /  3.2 km/h 6.0 mph /  9.7 km/h 66 % 0.00 in /  0 mm
15:35 59.5 °F /  15.3 °C 48.2 °F /  9 °C 30.30 in /  1026 hPa SE 4.0 mph /  6.4 km/h 8.0 mph /  12.9 km/h 66 % 0.00 in /  0 mm
15:40 59.2 °F /  15.1 °C 48.2 °F /  9 °C 30.30 in /  1026 hPa ESE 2.0 mph /  3.2 km/h 8.0 mph /  12.9 km/h 67 % 0.00 in /  0 mm
15:45 59.2 °F /  15.1 °C 48.2 °F /  9 °C 30.30 in /  1026 hPa SSE 6.0 mph /  9.7 km/h 8.0 mph /  12.9 km/h 67 % 0.00 in /  0 mm
15:50 59.4 °F /  15.2 °C 48.7 °F /  9.3 °C 30.30 in /  1026 hPa SE 4.0 mph /  6.4 km/h 7.0 mph /  11.3 km/h 68 % 0.00 in /  0 mm
15:55 59.4 °F /  15.2 °C 48.7 °F /  9.3 °C 30.30 in /  1026 hPa SE 1.0 mph /  1.6 km/h 7.0 mph /  11.3 km/h 68 % 0.00 in /  0 mm
16:00 59.2 °F /  15.1 °C 48.6 °F /  9.2 °C 30.30 in /  1026 hPa SSE 4.0 mph /  6.4 km/h 7.0 mph /  11.3 km/h 68 % 0.00 in /  0 mm
16:05 58.8 °F /  14.9 °C 48.2 °F /  9 °C 30.29 in /  1025.6 hPa Calm   6.0 mph /  9.7 km/h 68 % 0.00 in /  0 mm
16:10 58.8 °F /  14.9 °C 48.7 °F /  9.3 °C 30.30 in /  1026 hPa SSW 2.0 mph /  3.2 km/h 6.0 mph /  9.7 km/h 69 % 0.00 in /  0 mm
16:15 58.8 °F /  14.9 °C 48.7 °F /  9.3 °C 30.30 in /  1026 hPa SE 4.0 mph /  6.4 km/h 5.0 mph /  8 km/h 69 % 0.00 in /  0 mm
16:20 58.8 °F /  14.9 °C 49.1 °F /  9.5 °C 30.30 in /  1026 hPa SE 4.0 mph /  6.4 km/h 5.0 mph /  8 km/h 70 % 0.00 in /  0 mm
16:25 58.8 °F /  14.9 °C 48.7 °F /  9.3 °C 30.30 in /  1026 hPa SE 1.0 mph /  1.6 km/h 5.0 mph /  8 km/h 69 % 0.00 in /  0 mm
16:30 58.6 °F /  14.8 °C 48.9 °F /  9.4 °C 30.30 in /  1026 hPa SE 4.0 mph /  6.4 km/h 6.0 mph /  9.7 km/h 70 % 0.00 in /  0 mm
16:35 58.5 °F /  14.7 °C 48.7 °F /  9.3 °C 30.30 in /  1026 hPa SSE 3.0 mph /  4.8 km/h 6.0 mph /  9.7 km/h 70 % 0.00 in /  0 mm
16:40 58.3 °F /  14.6 °C 48.9 °F /  9.4 °C 30.30 in /  1026 hPa SSE 4.0 mph /  6.4 km/h 6.0 mph /  9.7 km/h 71 % 0.00 in /  0 mm
16:45 58.1 °F /  14.5 °C 48.7 °F /  9.3 °C 30.30 in /  1026 hPa ESE 3.0 mph /  4.8 km/h 6.0 mph /  9.7 km/h 71 % 0.00 in /  0 mm
16:50 57.9 °F /  14.4 °C 48.9 °F /  9.4 °C 30.30 in /  1026 hPa ESE 3.0 mph /  4.8 km/h 6.0 mph /  9.7 km/h 72 % 0.00 in /  0 mm
16:55 57.7 °F /  14.3 °C 48.7 °F /  9.3 °C 30.30 in /  1026 hPa South 3.0 mph /  4.8 km/h 6.0 mph /  9.7 km/h 72 % 0.00 in /  0 mm
17:00 57.7 °F /  14.3 °C 48.7 °F /  9.3 °C 30.29 in /  1025.6 hPa SSE 2.0 mph /  3.2 km/h 5.0 mph /  8 km/h 72 % 0.00 in /  0 mm
17:05 57.6 °F /  14.2 °C 48.6 °F /  9.2 °C 30.29 in /  1025.6 hPa SE 4.0 mph /  6.4 km/h 4.0 mph /  6.4 km/h 72 % 0.00 in /  0 mm
17:06 57.6 °F /  14.2 °C 48.9 °F /  9.4 °C 30.29 in /  1025.6 hPa SSE 2.0 mph /  3.2 km/h 4.0 mph /  6.4 km/h 73 % 0.00 in /  0 mm
17:11 57.4 °F /  14.1 °C 48.7 °F /  9.3 °C 30.30 in /  1026 hPa Calm   4.0 mph /  6.4 km/h 73 % 0.00 in /  0 mm
17:16 57.4 °F /  14.1 °C 48.7 °F /  9.3 °C 30.30 in /  1026 hPa Calm   4.0 mph /  6.4 km/h 73 % 0.00 in /  0 mm
17:21 57.4 °F /  14.1 °C 48.7 °F /  9.3 °C 30.30 in /  1026 hPa SE 1.0 mph /  1.6 km/h 4.0 mph /  6.4 km/h 73 % 0.00 in /  0 mm
17:26 57.4 °F /  14.1 °C 48.7 °F /  9.3 °C 30.30 in /  1026 hPa SSE 1.0 mph /  1.6 km/h 4.0 mph /  6.4 km/h 73 % 0.00 in /  0 mm
17:31 57.0 °F /  13.9 °C 48.4 °F /  9.1 °C 30.30 in /  1026 hPa SSE 1.0 mph /  1.6 km/h 4.0 mph /  6.4 km/h 73 % 0.00 in /  0 mm
17:36 57.0 °F /  13.9 °C 48.4 °F /  9.1 °C 30.30 in /  1026 hPa East 2.0 mph /  3.2 km/h 5.0 mph /  8 km/h 73 % 0.00 in /  0 mm
17:41 57.0 °F /  13.9 °C 48.7 °F /  9.3 °C 30.30 in /  1026 hPa SE 2.0 mph /  3.2 km/h 5.0 mph /  8 km/h 74 % 0.00 in /  0 mm
17:46 56.8 °F /  13.8 °C 48.6 °F /  9.2 °C 30.30 in /  1026 hPa SE 2.0 mph /  3.2 km/h 5.0 mph /  8 km/h 74 % 0.00 in /  0 mm
17:51 56.7 °F /  13.7 °C 48.4 °F /  9.1 °C 30.30 in /  1026 hPa East 2.0 mph /  3.2 km/h 5.0 mph /  8 km/h 74 % 0.00 in /  0 mm
17:56 56.7 °F /  13.7 °C 48.4 °F /  9.1 °C 30.30 in /  1026 hPa SE 2.0 mph /  3.2 km/h 5.0 mph /  8 km/h 74 % 0.00 in /  0 mm
18:01 56.7 °F /  13.7 °C 48.4 °F /  9.1 °C 30.30 in /  1026 hPa Calm   5.0 mph /  8 km/h 74 % 0.00 in /  0 mm
18:06 56.7 °F /  13.7 °C 48.4 °F /  9.1 °C 30.30 in /  1026 hPa SE 2.0 mph /  3.2 km/h 4.0 mph /  6.4 km/h 74 % 0.00 in /  0 mm
18:11 56.5 °F /  13.6 °C 48.4 °F /  9.1 °C 30.30 in /  1026 hPa SE 1.0 mph /  1.6 km/h 4.0 mph /  6.4 km/h 74 % 0.00 in /  0 mm
18:16 56.5 °F /  13.6 °C 48.4 °F /  9.1 °C 30.30 in /  1026 hPa Calm   4.0 mph /  6.4 km/h 74 % 0.00 in /  0 mm
18:21 56.3 °F /  13.5 °C 48.6 °F /  9.2 °C 30.30 in /  1026 hPa Calm   4.0 mph /  6.4 km/h 75 % 0.00 in /  0 mm
18:26 56.1 °F /  13.4 °C 48.4 °F /  9.1 °C 30.30 in /  1026 hPa ESE 1.0 mph /  1.6 km/h 3.0 mph /  4.8 km/h 75 % 0.00 in /  0 mm
18:31 56.1 °F /  13.4 °C 48.4 °F /  9.1 °C 30.30 in /  1026 hPa Calm   3.0 mph /  4.8 km/h 75 % 0.00 in /  0 mm
18:36 56.1 °F /  13.4 °C 48.4 °F /  9.1 °C 30.30 in /  1026 hPa East 1.0 mph /  1.6 km/h 3.0 mph /  4.8 km/h 75 % 0.00 in /  0 mm
18:41 56.1 °F /  13.4 °C 48.7 °F /  9.3 °C 30.30 in /  1026 hPa Calm   3.0 mph /  4.8 km/h 76 % 0.00 in /  0 mm
18:46 55.9 °F /  13.3 °C 48.6 °F /  9.2 °C 30.30 in /  1026 hPa East 1.0 mph /  1.6 km/h 3.0 mph /  4.8 km/h 76 % 0.00 in /  0 mm
18:51 55.9 °F /  13.3 °C 48.9 °F /  9.4 °C 30.30 in /  1026 hPa Calm   2.0 mph /  3.2 km/h 77 % 0.00 in /  0 mm
18:56 55.9 °F /  13.3 °C 48.9 °F /  9.4 °C 30.30 in /  1026 hPa SW 1.0 mph /  1.6 km/h 2.0 mph /  3.2 km/h 77 % 0.00 in /  0 mm
19:01 55.9 °F /  13.3 °C 49.1 °F /  9.5 °C 30.31 in /  1026.3 hPa SE 1.0 mph /  1.6 km/h 2.0 mph /  3.2 km/h 78 % 0.00 in /  0 mm
19:06 55.9 °F /  13.3 °C 49.1 °F /  9.5 °C 30.31 in /  1026.3 hPa Calm   2.0 mph /  3.2 km/h 78 % 0.00 in /  0 mm
19:11 55.9 °F /  13.3 °C 49.1 °F /  9.5 °C 30.30 in /  1026 hPa ESE 2.0 mph /  3.2 km/h 2.0 mph /  3.2 km/h 78 % 0.00 in /  0 mm
19:16 55.9 °F /  13.3 °C 49.1 °F /  9.5 °C 30.30 in /  1026 hPa Calm   2.0 mph /  3.2 km/h 78 % 0.00 in /  0 mm
19:21 55.9 °F /  13.3 °C 49.1 °F /  9.5 °C 30.30 in /  1026 hPa Calm   2.0 mph /  3.2 km/h 78 % 0.00 in /  0 mm
19:26 55.9 °F /  13.3 °C 49.5 °F /  9.7 °C 30.30 in /  1026 hPa South 1.0 mph /  1.6 km/h 2.0 mph /  3.2 km/h 79 % 0.00 in /  0 mm
19:31 55.9 °F /  13.3 °C 49.5 °F /  9.7 °C 30.30 in /  1026 hPa Calm   2.0 mph /  3.2 km/h 79 % 0.00 in /  0 mm
19:36 55.8 °F /  13.2 °C 49.6 °F /  9.8 °C 30.30 in /  1026 hPa Calm   2.0 mph /  3.2 km/h 80 % 0.00 in /  0 mm
19:41 55.8 °F /  13.2 °C 49.6 °F /  9.8 °C 30.30 in /  1026 hPa South 1.0 mph /  1.6 km/h 2.0 mph /  3.2 km/h 80 % 0.00 in /  0 mm
19:46 55.6 °F /  13.1 °C 49.8 °F /  9.9 °C 30.30 in /  1026 hPa Calm   2.0 mph /  3.2 km/h 81 % 0.00 in /  0 mm
19:51 55.6 °F /  13.1 °C 49.8 °F /  9.9 °C 30.30 in /  1026 hPa SSW 2.0 mph /  3.2 km/h 2.0 mph /  3.2 km/h 81 % 0.00 in /  0 mm
19:56 55.6 °F /  13.1 °C 49.8 °F /  9.9 °C 30.30 in /  1026 hPa SSW 1.0 mph /  1.6 km/h 2.0 mph /  3.2 km/h 81 % 0.00 in /  0 mm
20:01 55.6 °F /  13.1 °C 50.2 °F /  10.1 °C 30.30 in /  1026 hPa SSW 1.0 mph /  1.6 km/h 2.0 mph /  3.2 km/h 82 % 0.00 in /  0 mm
20:06 55.6 °F /  13.1 °C 50.2 °F /  10.1 °C 30.30 in /  1026 hPa South 1.0 mph /  1.6 km/h 3.0 mph /  4.8 km/h 82 % 0.00 in /  0 mm
20:11 55.6 °F /  13.1 °C 50.2 °F /  10.1 °C 30.30 in /  1026 hPa SW 1.0 mph /  1.6 km/h 3.0 mph /  4.8 km/h 82 % 0.00 in /  0 mm
20:16 55.6 °F /  13.1 °C 50.2 °F /  10.1 °C 30.30 in /  1026 hPa SSW 1.0 mph /  1.6 km/h 3.0 mph /  4.8 km/h 82 % 0.00 in /  0 mm
20:21 55.4 °F /  13 °C 50.0 °F /  10 °C 30.30 in /  1026 hPa Calm   2.0 mph /  3.2 km/h 82 % 0.00 in /  0 mm
20:26 55.4 °F /  13 °C 50.0 °F /  10 °C 30.30 in /  1026 hPa Calm   1.0 mph /  1.6 km/h 82 % 0.00 in /  0 mm
20:31 55.4 °F /  13 °C 50.0 °F /  10 °C 30.30 in /  1026 hPa Calm   1.0 mph /  1.6 km/h 82 % 0.00 in /  0 mm
20:36 55.4 °F /  13 °C 50.0 °F /  10 °C 30.30 in /  1026 hPa ESE 1.0 mph /  1.6 km/h 1.0 mph /  1.6 km/h 82 % 0.00 in /  0 mm
20:41 55.6 °F /  13.1 °C 49.8 °F /  9.9 °C 30.30 in /  1026 hPa Calm   1.0 mph /  1.6 km/h 81 % 0.00 in /  0 mm
20:46 55.6 °F /  13.1 °C 49.8 °F /  9.9 °C 30.30 in /  1026 hPa SE 1.0 mph /  1.6 km/h 1.0 mph /  1.6 km/h 81 % 0.00 in /  0 mm
20:51 55.6 °F /  13.1 °C 49.5 °F /  9.7 °C 30.30 in /  1026 hPa Calm   2.0 mph /  3.2 km/h 80 % 0.00 in /  0 mm
20:56 55.8 °F /  13.2 °C 49.6 °F /  9.8 °C 30.30 in /  1026 hPa East 1.0 mph /  1.6 km/h 2.0 mph /  3.2 km/h 80 % 0.00 in /  0 mm
21:01 55.8 °F /  13.2 °C 49.6 °F /  9.8 °C 30.30 in /  1026 hPa Calm   2.0 mph /  3.2 km/h 80 % 0.00 in /  0 mm
21:06 55.8 °F /  13.2 °C 49.6 °F /  9.8 °C 30.29 in /  1025.6 hPa Calm   2.0 mph /  3.2 km/h 80 % 0.00 in /  0 mm
21:11 55.8 °F /  13.2 °C 49.6 °F /  9.8 °C 30.29 in /  1025.6 hPa Calm   1.0 mph /  1.6 km/h 80 % 0.00 in /  0 mm
21:16 55.8 °F /  13.2 °C 49.3 °F /  9.6 °C 30.29 in /  1025.6 hPa Calm   1.0 mph /  1.6 km/h 79 % 0.00 in /  0 mm
21:21 55.8 °F /  13.2 °C 49.6 °F /  9.8 °C 30.29 in /  1025.6 hPa Calm   1.0 mph /  1.6 km/h 80 % 0.00 in /  0 mm
21:26 55.8 °F /  13.2 °C 49.6 °F /  9.8 °C 30.29 in /  1025.6 hPa SE 2.0 mph /  3.2 km/h 2.0 mph /  3.2 km/h 80 % 0.00 in /  0 mm
21:31 55.8 °F /  13.2 °C 49.3 °F /  9.6 °C 30.28 in /  1025.3 hPa Calm   2.0 mph /  3.2 km/h 79 % 0.00 in /  0 mm
21:36 55.8 °F /  13.2 °C 49.3 °F /  9.6 °C 30.28 in /  1025.3 hPa ESE 1.0 mph /  1.6 km/h 3.0 mph /  4.8 km/h 79 % 0.00 in /  0 mm
21:41 55.8 °F /  13.2 °C 49.6 °F /  9.8 °C 30.28 in /  1025.3 hPa SE 1.0 mph /  1.6 km/h 3.0 mph /  4.8 km/h 80 % 0.00 in /  0 mm
21:47 55.8 °F /  13.2 °C 49.6 °F /  9.8 °C 30.28 in /  1025.3 hPa SE 1.0 mph /  1.6 km/h 3.0 mph /  4.8 km/h 80 % 0.00 in /  0 mm
21:52 55.8 °F /  13.2 °C 49.6 °F /  9.8 °C 30.28 in /  1025.3 hPa SE 2.0 mph /  3.2 km/h 2.0 mph /  3.2 km/h 80 % 0.00 in /  0 mm
21:57 55.8 °F /  13.2 °C 50.0 °F /  10 °C 30.28 in /  1025.3 hPa ESE 1.0 mph /  1.6 km/h 4.0 mph /  6.4 km/h 81 % 0.00 in /  0 mm
22:02 55.6 °F /  13.1 °C 49.8 °F /  9.9 °C 30.28 in /  1025.3 hPa ESE 1.0 mph /  1.6 km/h 4.0 mph /  6.4 km/h 81 % 0.00 in /  0 mm
22:07 55.6 °F /  13.1 °C 49.8 °F /  9.9 °C 30.28 in /  1025.3 hPa SE 2.0 mph /  3.2 km/h 5.0 mph /  8 km/h 81 % 0.00 in /  0 mm
22:12 55.6 °F /  13.1 °C 49.8 °F /  9.9 °C 30.28 in /  1025.3 hPa Calm   5.0 mph /  8 km/h 81 % 0.00 in /  0 mm
22:17 55.6 °F /  13.1 °C 49.8 °F /  9.9 °C 30.28 in /  1025.3 hPa SE 1.0 mph /  1.6 km/h 5.0 mph /  8 km/h 81 % 0.00 in /  0 mm
22:22 55.6 °F /  13.1 °C 49.8 °F /  9.9 °C 30.28 in /  1025.3 hPa Calm   3.0 mph /  4.8 km/h 81 % 0.00 in /  0 mm
22:27 55.6 °F /  13.1 °C 49.8 °F /  9.9 °C 30.28 in /  1025.3 hPa Calm   3.0 mph /  4.8 km/h 81 % 0.00 in /  0 mm
22:32 55.4 °F /  13 °C 49.6 °F /  9.8 °C 30.28 in /  1025.3 hPa ESE 1.0 mph /  1.6 km/h 3.0 mph /  4.8 km/h 81 % 0.00 in /  0 mm
22:37 55.4 °F /  13 °C 49.6 °F /  9.8 °C 30.28 in /  1025.3 hPa SE 1.0 mph /  1.6 km/h 3.0 mph /  4.8 km/h 81 % 0.00 in /  0 mm
22:42 55.4 °F /  13 °C 49.6 °F /  9.8 °C 30.27 in /  1024.9 hPa Calm   3.0 mph /  4.8 km/h 81 % 0.00 in /  0 mm
22:47 55.4 °F /  13 °C 49.6 °F /  9.8 °C 30.27 in /  1024.9 hPa Calm   3.0 mph /  4.8 km/h 81 % 0.00 in /  0 mm
22:52 55.4 °F /  13 °C 50.0 °F /  10 °C 30.27 in /  1024.9 hPa ESE 2.0 mph /  3.2 km/h 3.0 mph /  4.8 km/h 82 % 0.00 in /  0 mm
22:57 55.4 °F /  13 °C 50.0 °F /  10 °C 30.27 in /  1024.9 hPa ESE 1.0 mph /  1.6 km/h 3.0 mph /  4.8 km/h 82 % 0.00 in /  0 mm
23:02 55.4 °F /  13 °C 50.0 °F /  10 °C 30.27 in /  1024.9 hPa ESE 1.0 mph /  1.6 km/h 3.0 mph /  4.8 km/h 82 % 0.00 in /  0 mm
23:07 55.4 °F /  13 °C 50.0 °F /  10 °C 30.27 in /  1024.9 hPa SE 1.0 mph /  1.6 km/h 3.0 mph /  4.8 km/h 82 % 0.00 in /  0 mm
23:12 55.4 °F /  13 °C 50.0 °F /  10 °C 30.27 in /  1024.9 hPa Calm   3.0 mph /  4.8 km/h 82 % 0.00 in /  0 mm
23:17 55.2 °F /  12.9 °C 49.8 °F /  9.9 °C 30.27 in /  1024.9 hPa Calm   3.0 mph /  4.8 km/h 82 % 0.00 in /  0 mm
23:22 55.2 °F /  12.9 °C 49.8 °F /  9.9 °C 30.27 in /  1024.9 hPa Calm   2.0 mph /  3.2 km/h 82 % 0.00 in /  0 mm
23:27 55.2 °F /  12.9 °C 49.8 °F /  9.9 °C 30.27 in /  1024.9 hPa Calm   1.0 mph /  1.6 km/h 82 % 0.00 in /  0 mm
23:32 55.2 °F /  12.9 °C 49.8 °F /  9.9 °C 30.27 in /  1024.9 hPa Calm   1.0 mph /  1.6 km/h 82 % 0.00 in /  0 mm
23:37 55.2 °F /  12.9 °C 50.2 °F /  10.1 °C 30.27 in /  1024.9 hPa Calm   1.0 mph /  1.6 km/h 83 % 0.00 in /  0 mm
23:42 55.2 °F /  12.9 °C 50.2 °F /  10.1 °C 30.26 in /  1024.6 hPa Calm   1.0 mph /  1.6 km/h 83 % 0.00 in /  0 mm
23:47 55.2 °F /  12.9 °C 50.2 °F /  10.1 °C 30.26 in /  1024.6 hPa Calm   1.0 mph /  1.6 km/h 83 % 0.00 in /  0 mm
23:52 55.2 °F /  12.9 °C 50.2 °F /  10.1 °C 30.26 in /  1024.6 hPa Calm   1.0 mph /  1.6 km/h 83 % 0.00 in /  0 mm
23:57 55.2 °F /  12.9 °C 50.2 °F /  10.1 °C 30.26 in /  1024.6 hPa Calm     83 % 0.00 in /  0 mm
Spring, Texas: Villages of Bridgestone
Compliments of Weather Underground - 2.75 mb

Script developed by  Jim McMurry - jmcmurry@mwt.net Adapted for the template by  Wim van der Kuil - Leuven-Template.eu

You find our weather info also at:

UK Metoffice

WeatherCloud

Weather Underground

Mid-South Weather Network

AWEKAS

Citizen Weather Observer Program (CWOP)

HAMweather, WeatherForYou, PWS Weather

Equipment we use:

Weather-station
Davis Vantage Vue

Weather-program
Meteohub

Weather-server
Debian 7.9 x86 (Guest)

Provider
DreamHost

Davis Vantage Vue

Meteohub

Debian 7.9 x86 (Guest)

DreamHost